[[{"header":{"parameterUnit":"m.s-1","parameterCategory":1,"la1":30.2991,"la2":30.254,"lo1":-89.0895,"lo2":-89.0444,"dy":0.0017,"dx":0.0017,"nx":28,"ny":28,"refTime":"2025-07-18T21:00:00:Z","depth":0,"parameterNumber":2,"parameterNumberName":"U-component_of_WINDS"},"data":[0,0,0,0,0,0,0,0,0,0,0,0,0,0,0,0,0,0,0,0,0,0,0,0,0,0,0,0,0,0,0,0,0,0,0,0,0,0,0,0,0,0,0,0,0,0,0,0,0,0,0,0,0,0,0,0,0,0,2.2765,2.2764,0,2.2718,2.2718,2.2717,2.264,2.2638,2.2637,2.2636,2.2588,2.2588,2.2588,0,0,0,0,0,0,0,0,0,0,0,0,0,2.2785,2.2785,2.2765,2.2764,2.2764,2.2718,2.2718,2.2717,2.264,2.2638,2.2637,2.2635,2.2588,2.2588,2.2588,0,0,0,0,0,0,0,0,0,0,0,0,0,2.2761,2.2785,2.2765,2.272,2.2715,2.2718,2.2718,2.2717,2.264,2.2638,2.2636,2.2634,2.2588,2.2588,2.2588,2.2631,0,0,2.2588,2.2588,0,0,0,0,0,0,0,0,2.2763,2.2761,2.2727,2.2723,2.2718,2.2683,2.2707,2.2688,2.2641,2.2669,2.2636,2.2633,2.2621,2.2618,2.2614,2.2629,2.2627,2.2588,2.2588,2.2588,2.2588,0,0,0,0,0,0,0,2.2765,2.2762,2.2746,2.2727,2.2721,2.2701,2.2695,2.2703,2.2658,2.2666,2.2661,2.2656,2.2618,2.2614,2.2613,2.2626,2.2588,2.2588,2.2588,2.2589,2.267,2.2672,0,0,0,0,0,0,2.2773,2.2764,2.2748,2.2745,2.2736,2.2703,2.2696,2.2696,2.2657,2.2649,2.2658,2.2653,2.2615,2.2613,2.2611,2.2655,2.2588,2.2589,2.2589,2.2667,2.267,2.2672,0,0,0,0,0,0,2.2774,2.2772,2.275,2.2753,2.2749,2.2705,2.2705,2.2696,2.2692,2.2651,2.2642,2.2663,2.2614,2.2611,2.2626,2.2653,2.2589,2.2589,2.2665,2.2668,2.2671,2.2747,0,0,0,0,0,0,2.2775,2.2773,2.279,2.2754,2.2749,2.2767,2.2707,2.2697,2.2693,2.2685,2.2653,2.2646,2.2612,2.2626,2.2626,2.2651,2.2589,2.2662,2.2666,2.267,2.2742,2.2752,2.2761,0,0,0,0,0,2.2776,2.2814,2.2791,2.279,2.2769,2.2768,2.2765,2.2725,2.2695,2.2711,2.2684,2.2647,2.265,2.2628,2.2627,2.2654,2.266,2.2665,2.267,2.2737,2.275,2.2761,0,0,0,0,0,0,2.2855,2.2809,2.2783,2.2811,2.2794,2.2755,2.2774,2.2741,2.2732,2.2726,2.2677,2.267,2.2691,2.2674,2.265,2.2691,2.2649,2.2654,2.2701,2.2713,2.2722,2.2725,2.2589,0,0,0,0,0,2.2876,2.288,2.2839,2.2867,2.286,2.2819,2.2817,2.2787,2.2768,2.2761,2.2735,2.2717,2.2714,2.2713,2.2708,2.274,2.273,2.2757,2.2767,2.2775,2.2779,2.279,2.2801,2.2688,2.2688,2.2688,0,0,2.2919,2.2894,2.2899,2.2882,2.2866,2.2869,2.2813,2.2821,2.2822,2.2762,2.2773,2.2754,2.2731,2.2753,2.2762,2.274,2.2808,2.2781,2.2788,2.2787,2.2796,2.2807,2.2817,2.2691,2.269,2.269,0,0,2.2997,2.2981,2.3,2.2984,2.296,2.2931,2.2936,2.2902,2.2886,2.2897,2.2851,2.2852,2.2849,2.2833,2.2825,2.2895,2.2859,2.2895,2.2945,2.2957,2.2965,2.2973,2.2995,2.3003,2.2899,2.29,2.29,0,2.3054,2.3058,2.3015,2.3024,2.3016,2.2961,2.298,2.2967,2.2942,2.2937,2.2913,2.2905,2.2886,2.2902,2.2919,2.2915,2.2917,2.2897,2.2968,2.2975,2.2981,2.3001,2.301,2.2904,2.2903,2.2903,2.2902,0,2.3126,2.3129,2.3148,2.3124,2.3119,2.3133,2.3091,2.3091,2.3062,2.3036,2.3046,2.3021,2.3008,2.301,2.2983,2.3021,2.3008,2.2977,2.2933,2.2997,2.3015,2.3022,2.291,2.2908,2.2907,2.2906,0,0,2.3253,2.3204,2.3211,2.3198,2.3166,2.3167,2.3177,2.3164,2.3163,2.3148,2.3154,2.3151,2.312,2.3111,2.3081,2.3092,2.3144,2.3058,2.3057,2.3072,2.3181,2.3203,2.3212,2.3121,2.3122,2.3124,2.3182,0,2.3323,2.3338,2.3298,2.3322,2.3323,2.327,2.3278,2.3259,2.3234,2.323,2.3204,2.32,2.3163,2.3156,2.3165,2.3136,2.3165,2.3132,2.3123,2.3124,2.3128,2.3222,2.3246,2.3302,2.3189,2.319,2.3191,0,2.3407,2.3393,2.3417,2.338,2.3379,2.3388,2.337,2.3368,2.3344,2.3325,2.3313,2.3278,2.3283,2.3243,2.3249,2.3227,2.3222,2.3207,2.3208,2.3204,2.3159,2.3217,2.3319,2.3327,2.3202,2.3201,2.3201,0,2.3492,2.3481,2.3493,2.3484,2.3442,2.3448,2.3431,2.3405,2.3399,2.3384,2.3378,2.3365,2.3357,2.3347,2.3307,2.3283,2.3317,2.3274,2.3299,2.33,2.3307,2.3306,2.3406,2.3309,2.3308,2.3308,2.3308,0,2.3572,2.3588,2.353,2.3537,2.3552,2.3506,2.3522,2.35,2.3477,2.3477,2.3431,2.3433,2.3382,2.3377,2.3347,2.3354,2.3352,2.3335,2.3326,2.3337,2.3339,2.3331,2.3325,2.331,2.331,2.331,2.3309,0,2.367,2.3632,2.3641,2.36,2.359,2.3603,2.3567,2.3571,2.3543,2.3544,2.3541,2.3498,2.3489,2.345,2.3433,2.3412,2.3428,2.3413,2.3436,2.343,2.3455,2.3452,2.3552,2.3561,2.3461,2.3462,2.3462,0,2.3722,2.3733,2.3692,2.3689,2.3673,2.367,2.3662,2.3617,2.3611,2.3582,2.3589,2.3577,2.3564,2.3553,2.3519,2.3505,2.3487,2.3523,2.3485,2.3494,2.3483,2.3482,2.3481,2.353,2.3532,2.3533,2.3534,0,2.3817,2.3797,2.3788,2.3772,2.3764,2.3749,2.3732,2.3731,2.3681,2.3676,2.3667,2.3657,2.3638,2.3626,2.3605,2.3586,2.3551,2.3546,2.355,2.356,2.3572,2.3562,2.3455,2.3543,2.3542,2.3542,2.3541,2.3541,2.3891,2.3896,2.3868,2.3858,2.384,2.3824,2.3824,2.3796,2.3787,2.3768,2.3742,2.3735,2.3708,2.3677,2.3661,2.3653,2.3634,2.3641,2.3642,2.3644,2.3648,2.3575,2.365,2.365,2.3649,2.3649,2.3649,0,2.3981,2.3959,2.3951,2.3927,2.3919,2.3887,2.3865,2.386,2.3854,2.3832,2.382,2.3807,2.3794,2.3759,2.3742,2.3743,2.3726,2.3739,2.3737,2.3733,2.3668,2.3665,2.3753,2.3753,2.3753,2.3753,2.3753,2.3753,2.4026,2.4032,2.4009,2.4004,2.3983,2.3975,2.3965,2.3949,2.393,2.3918,2.3907,2.3884,2.3855,2.3835,2.3821,2.3811,2.3805,2.3824,2.3808,2.3748,2.3738,2.3728,2.3724,2.3824,2.3824,2.3873,2.3873,2.3874]},{"header":{"parameterUnit":"m.s-1","parameterCategory":1,"la1":30.2991,"la2":30.254,"lo1":-89.0895,"lo2":-89.0444,"dy":0.0017,"dx":0.0017,"nx":28,"ny":28,"refTime":"2025-07-18T21:00:00:Z","depth":0,"parameterNumber":3,"parameterNumberName":"V-component_of_WINDS"},"data":[0,0,0,0,0,0,0,0,0,0,0,0,0,0,0,0,0,0,0,0,0,0,0,0,0,0,0,0,0,0,0,0,0,0,0,0,0,0,0,0,0,0,0,0,0,0,0,0,0,0,0,0,0,0,0,0,0,0,5.788,5.7881,0,5.7987,5.7988,5.7989,5.7957,5.7955,5.7952,5.795,5.8055,5.806,5.8065,0,0,0,0,0,0,0,0,0,0,0,0,0,5.7641,5.7645,5.788,5.7881,5.7882,5.7987,5.7988,5.7989,5.7957,5.7955,5.7952,5.7949,5.8054,5.8059,5.8065,0,0,0,0,0,0,0,0,0,0,0,0,0,5.7746,5.7647,5.7879,5.7879,5.788,5.7986,5.7988,5.799,5.7958,5.7955,5.7951,5.7948,5.8052,5.8059,5.8066,5.8178,0,0,5.8088,5.8091,0,0,0,0,0,0,0,0,5.774,5.7754,5.7878,5.7879,5.788,5.7955,5.7942,5.8053,5.7959,5.7928,5.795,5.7946,5.8024,5.8034,5.8061,5.8183,5.8187,5.8089,5.8093,5.8096,5.8099,0,0,0,0,0,0,0,5.7733,5.775,5.7922,5.7879,5.7881,5.7871,5.7882,5.7963,5.7993,5.7931,5.7929,5.7942,5.8024,5.8054,5.8063,5.8189,5.8089,5.8095,5.81,5.8103,5.8404,5.8407,0,0,0,0,0,0,5.7725,5.7744,5.7918,5.7925,5.7801,5.7878,5.7891,5.7934,5.7993,5.7998,5.7945,5.794,5.8043,5.8055,5.8067,5.8199,5.8096,5.8103,5.8107,5.84,5.8405,5.8409,0,0,0,0,0,0,5.772,5.7741,5.7914,5.7834,5.7855,5.7886,5.7935,5.7938,5.7968,5.8003,5.8008,5.797,5.8041,5.8056,5.815,5.8202,5.8107,5.8113,5.8396,5.8402,5.8407,5.8466,0,0,0,0,0,0,5.7713,5.7739,5.7784,5.7835,5.786,5.7998,5.7939,5.7943,5.7981,5.7976,5.8028,5.8033,5.804,5.8139,5.8157,5.821,5.8119,5.8391,5.8398,5.8405,5.8459,5.8473,5.8484,0,0,0,0,0,5.7705,5.7796,5.7786,5.7808,5.7916,5.8001,5.8015,5.8021,5.7986,5.8029,5.8051,5.8032,5.8194,5.8149,5.8169,5.8225,5.8388,5.8396,5.8404,5.8454,5.847,5.8484,0,0,0,0,0,0,5.7749,5.7803,5.7793,5.7903,5.7948,5.7995,5.8051,5.8039,5.8093,5.8086,5.8091,5.8102,5.8198,5.8221,5.817,5.8335,5.8285,5.8298,5.8316,5.8332,5.8344,5.8335,5.8125,0,0,0,0,0,5.7772,5.7838,5.7881,5.7974,5.7997,5.802,5.8057,5.8059,5.8104,5.8122,5.8152,5.8195,5.8255,5.8295,5.8353,5.8463,5.8472,5.8511,5.8524,5.8534,5.8544,5.86,5.8618,5.8435,5.8435,5.8435,0,0,5.7819,5.7856,5.7898,5.7984,5.8018,5.8084,5.8036,5.8109,5.8157,5.8133,5.8223,5.8246,5.8294,5.8396,5.8442,5.8418,5.8596,5.8544,5.8552,5.8556,5.8611,5.8628,5.8643,5.8441,5.844,5.8439,0,0,5.7938,5.7975,5.8055,5.8091,5.8144,5.8159,5.8178,5.8227,5.8241,5.8332,5.8315,5.8371,5.8476,5.8511,5.8542,5.8672,5.8655,5.8691,5.8755,5.881,5.8825,5.8837,5.8881,5.8897,5.8701,5.8702,5.8702,0,5.7989,5.809,5.8097,5.8171,5.8208,5.8191,5.827,5.8304,5.8373,5.8398,5.8371,5.85,5.8532,5.864,5.8672,5.8699,5.8718,5.8685,5.8822,5.8835,5.8847,5.8889,5.8906,5.8705,5.8705,5.8705,5.8704,0,5.8149,5.8219,5.8277,5.8345,5.8389,5.8465,5.8482,5.8525,5.8522,5.8538,5.8629,5.8666,5.873,5.8756,5.8754,5.8863,5.8846,5.8821,5.8771,5.8868,5.8907,5.8924,5.8711,5.871,5.8708,5.8707,0,0,5.8299,5.8369,5.839,5.842,5.8477,5.853,5.8604,5.8667,5.8703,5.8751,5.8811,5.89,5.8876,5.8911,5.8912,5.8961,5.9059,5.8929,5.893,5.895,5.9178,5.9195,5.9214,5.9048,5.9051,5.9054,5.9173,0,5.8421,5.8554,5.8562,5.8681,5.8743,5.8727,5.8791,5.8831,5.8849,5.8903,5.8921,5.8983,5.8948,5.8969,5.9017,5.9037,5.9104,5.9029,5.9102,5.9104,5.9088,5.9235,5.9254,5.9365,5.9189,5.9191,5.9193,0,5.8582,5.8635,5.8761,5.8806,5.8833,5.8891,5.8948,5.9001,5.9045,5.9054,5.9093,5.9087,5.916,5.9109,5.9209,5.9157,5.9187,5.9202,5.9206,5.9211,5.9153,5.9242,5.9401,5.9416,5.9218,5.9216,5.9214,0,5.8675,5.8778,5.8866,5.8892,5.8948,5.8989,5.9014,5.9055,5.9092,5.9142,5.9165,5.9223,5.9253,5.9297,5.9305,5.9268,5.9404,5.9354,5.9411,5.9411,5.9439,5.9437,5.9602,5.9462,5.9462,5.9462,5.9461,0,5.881,5.8887,5.8909,5.8962,5.9047,5.9054,5.9137,5.9159,5.9195,5.9251,5.924,5.9292,5.9301,5.9355,5.9362,5.9441,5.9456,5.9463,5.9464,5.9463,5.9462,5.9482,5.9473,5.9466,5.9465,5.9464,5.9463,0,5.8928,5.8946,5.904,5.9086,5.9099,5.9159,5.9196,5.9247,5.9262,5.9333,5.935,5.9374,5.9436,5.9449,5.9523,5.9527,5.9621,5.9615,5.9606,5.9605,5.966,5.9654,5.9843,5.9867,5.9713,5.9714,5.9716,0,5.9012,5.9071,5.9122,5.9159,5.9186,5.9247,5.9284,5.9293,5.9332,5.9386,5.9429,5.949,5.9539,5.9639,5.9662,5.9717,5.9711,5.9773,5.9719,5.9716,5.9709,5.9704,5.9709,5.9783,5.9784,5.9786,5.9787,0,5.9158,5.9163,5.9219,5.9277,5.9322,5.9368,5.9412,5.9443,5.9457,5.9501,5.9565,5.9603,5.9678,5.9738,5.9793,5.9816,5.9803,5.9804,5.982,5.9819,5.981,5.9813,5.9632,5.9799,5.9798,5.9797,5.9796,5.9796,5.9259,5.931,5.9353,5.9415,5.9449,5.9489,5.9538,5.956,5.9614,5.9676,5.9678,5.9747,5.9787,5.986,5.9887,5.9939,5.9919,5.9943,5.9948,5.9953,5.9957,5.9804,5.9949,5.9949,5.9949,5.9949,5.9948,0,5.9402,5.9429,5.9486,5.9547,5.9595,5.958,5.9627,5.9667,5.9729,5.9768,5.9817,5.9889,5.9947,5.9974,6.003,6.0067,6.0062,6.0081,6.0077,6.0082,5.9973,5.9953,6.0084,6.0084,6.0083,6.0083,6.0083,6.0083,5.9482,5.9566,5.9576,5.9675,5.9701,5.977,5.9798,5.9834,5.9865,5.9947,5.9995,6.0013,6.0046,6.0105,6.0156,6.0162,6.0182,6.0204,6.0207,6.0104,6.009,6.0077,6.0058,6.0209,6.0209,6.0311,6.0312,6.0313]}]]